Location: Laura�t
(43.9341°N, 0.2497°E)
Time: 04:01:44
(UTC+00:00)

Cosmos 2322 - Visible Passes

Search period start: 14 June 2021 00:00
Search period end: 24 June 2021 00:00
Orbit: 842 x 853 km, 71.0° (Epoch: 13 June)

Date Brightness Start Highest point End Pass type
(mag) Time Alt. Az. Time Alt. Az. Time Alt. Az.
14 Jun 5.8 00:26:49 10° W 00:31:00 21° NW 00:35:13 10° N visible
14 Jun 3.6 22:30:23 33° S 22:32:57 71° ESE 22:38:36 10° NNE visible
15 Jun 5.8 00:13:29 10° W 00:17:43 21° NW 00:21:58 10° N visible
15 Jun 3.6 22:16:36 27° S 22:19:41 70° ESE 22:25:19 10° NNE visible
16 Jun 5.8 00:00:09 10° W 00:04:26 21° NW 00:08:42 10° N visible
16 Jun 3.6 22:02:41 22° S 22:06:24 68° ESE 22:12:02 10° NNE visible
16 Jun 5.8 23:46:50 10° W 23:51:07 22° NW 23:55:27 10° N visible
17 Jun 3.7 21:48:35 16° S 21:53:08 67° ESE 21:58:45 10° NNE visible
17 Jun 5.8 23:33:30 10° W 23:37:50 22° NW 23:42:12 10° N visible
18 Jun 3.7 21:34:17 10° SSW 21:39:51 66° ESE 21:45:28 10° NNE visible
18 Jun 5.9 23:20:10 10° W 23:24:33 22° NW 23:28:56 10° N visible
19 Jun 3.7 21:21:01 10° S 21:26:35 65° ESE 21:32:11 10° NNE visible
19 Jun 5.9 23:06:50 10° W 23:11:15 23° NW 23:15:41 10° N visible
20 Jun 3.7 21:07:44 10° S 21:13:18 63° ESE 21:18:54 10° NNE visible
20 Jun 5.9 22:53:30 10° WSW 22:57:57 23° NW 23:02:25 10° N visible
21 Jun 3.7 20:54:28 10° S 21:00:02 62° ESE 21:05:37 10° NNE visible
21 Jun 5.9 22:40:11 10° WSW 22:44:40 24° NW 22:49:10 10° N visible
22 Jun 3.7 20:41:13 10° S 20:46:45 61° ESE 20:52:20 10° NNE visible
22 Jun 5.9 22:26:52 10° WSW 22:31:22 24° NW 22:35:55 10° N visible
23 Jun 3.8 20:27:57 10° S 20:33:29 60° ESE 20:39:03 10° NNE visible
23 Jun 6.0 22:13:32 10° WSW 22:18:04 24° NW 22:22:39 10° N visible
